This is the latest recevied weather packets stored in our database for station/object WX7FGZ-7. If no packets are shown the sender has not sent any weather packets the latest 1 day(s).
| Time | Temp. | Humidity | Pressure | Rain* | Wind** | Luminosity | Snow |
|---|---|---|---|---|---|---|---|
| 1778064722 | 8.33° C | 52% | 1014.5 hPa | 0 mm | - | - | - |
| 1778063782 | 8.33° C | 53% | 1014.5 hPa | 0 mm | - | - | - |
| 1778062626 | 8.33° C | 53% | 1014.4 hPa | 0 mm | - | - | - |
| 1778060708 | 9.44° C | 53% | 1014.5 hPa | 0 mm | - | - | - |
| 1778057250 | 11.11° C | 53% | 1014.7 hPa | 0 mm | - | - | - |
| 1778056668 | 11.11° C | 53% | 1014.6 hPa | 0 mm | - | - | - |
| 1778056059 | 11.11° C | 54% | 1014.8 hPa | 0 mm | - | - | - |
| 1778054944 | 10.56° C | 54% | 1014.7 hPa | 0 mm | - | - | - |
| 1778054532 | 10.56° C | 54% | 1014.7 hPa | 0 mm | - | - | - |
| 1778053571 | 10.56° C | 54% | 1015.1 hPa | 0 mm | - | - | - |
| 1778052971 | 10° C | 54% | 1015.1 hPa | 0 mm | - | - | - |
| 1778052386 | 10° C | 54% | 1015.2 hPa | 0 mm | - | - | - |
| 1778052216 | 10° C | 53% | 1015.3 hPa | 0 mm | - | - | - |
| 1778051613 | 10° C | 53% | 1015.3 hPa | 0 mm | - | - | - |
| 1778051471 | 10° C | 53% | 1015.3 hPa | 0 mm | - | - | - |
| 1778051172 | 10° C | 53% | 1015.4 hPa | 0 mm | - | - | - |
| 1778050748 | 10.56° C | 52% | 1015.2 hPa | 0 mm | - | - | - |
| 1778050571 | 10.56° C | 52% | 1015.2 hPa | 0 mm | - | - | - |
| 1778050568 | 10.56° C | 52% | 1015.3 hPa | 0 mm | - | - | - |
| 1778048471 | 11.11° C | 51% | 1015 hPa | 0 mm | - | - | - |
| 1778047573 | 11.11° C | 50% | 1014.7 hPa | 0 mm | - | - | - |
| 1778047271 | 11.11° C | 50% | 1014.7 hPa | 0 mm | - | - | - |
| 1778046801 | 11.11° C | 49% | 1014.6 hPa | 0 mm | - | - | - |
| 1778046671 | 11.11° C | 49% | 1014.6 hPa | 0 mm | - | - | - |
| 1778044288 | 11.11° C | 48% | 1014.5 hPa | 0 mm | - | - | - |
* Rain latest hour (hover to see other rain measurements)
** Current wind speed in m/s (hover to see current wind gust speed)